Location: Oriwa
(40.7500°S, 175.3333°E)
Time: 14:08:54
(UTC+00:00)

Okean 3 - Pass Details

Date: 03 February 2023
Orbit: 570 x 594 km, 82.5° (Epoch: 31 March)

Event Time Altitude Azimuth Distance (km) Brightness Sun altitude
Exits shadow 14:26:36 51° 129° (SE) 733 4.2 -26.9°
Drops below altitude 10° 14:30:04 10° 165° (SSE) 1,917 7.0 -26.6°
Sets 14:32:18 0° 168° (SSE) 2,828 8.1 -26.4°
